Flag for USA

Past Weather in Norfolk, Virginia, USA — Yesterday and Last 2 Weeks

Now
75 °F

Broken clouds.


Feels Like: 77 °F
Forecast: 76 / 61 °F
Wind: 7 mph from East

Location: Norfolk Naval Air Station
Current Time: Oct 22, 2020 at 2:31:39 pm
Latest Report: Oct 22, 2020 at 1:59 pm
Visibility: 10 mi
Pressure30.22 "Hg
Humidity: 66%
Dew Point: 63 °F
Location of NorfolkLocation

Past Weather in Norfolk — Graph

°F

Norfolk Temperature Yesterday

Maximum temperature yesterday: 80 °F (at 2:59 pm)
Minimum temperature yesterday: 62 °F (at 6:59 am)
Average temperature yesterday: 69 °F

High & Low Weather Summary for the Past Weeks

 TemperatureHumidityPressure
High81 °F (Oct 7, 2:59 pm)97% (Oct 21, 1:59 am)30.40 "Hg (Oct 21, 1:59 am)
Low48 °F (Oct 18, 12:59 am)28% (Oct 14, 3:59 pm)29.82 "Hg (Oct 12, 4:08 pm)
Average66 °F77%30.12 "Hg
* Reported Oct 7 12:59 pm — Oct 22 12:59 pm, Norfolk. Weather by CustomWeather, © 2020

Note: Actual official high and low records may vary slightly from our data, if they occured in-between our weather recording intervals... More about our weather records

Norfolk Weather History for the Previous 24 Hours

Scroll right to see more
 ConditionsComfort  
Time TempWeatherWind HumidityBarometerVisibility
12:59 pm
Thu, Oct 22
74 °FBroken clouds.6 mph69%30.24 "Hg10 mi
11:59 am75 °FBroken clouds.5 mph69%30.26 "Hg10 mi
10:59 am74 °FBroken clouds.5 mph71%30.26 "Hg10 mi
9:59 am71 °FScattered clouds.3 mph81%30.26 "Hg9 mi
8:59 am66 °FFog.No wind93%30.26 "Hg5 mi
7:59 am61 °FFog.No wind93%30.24 "Hg5 mi
6:59 am61 °FFog.No wind93%30.24 "Hg5 mi
6:14 am61 °FFog.No wind93%30.23 "Hg3 mi
6:01 am60 °FFog.No wind96%30.23 "Hg3 mi
5:42 am61 °FFog.No wind93%30.22 "Hg1 mi
5:20 am61 °FFog.No wind93%30.22 "Hg2 mi
4:59 am61 °FFog.No wind93%30.22 "Hg6 mi
4:34 am61 °FFog.No wind93%30.21 "Hg1 mi
4:23 am61 °FFog.No wind97%30.21 "Hg1 mi
3:59 am62 °FFog.No wind93%30.22 "Hg5 mi
3:27 am63 °FFog.No wind90%30.22 "Hg1 mi
3:10 am63 °FFog.No wind90%30.22 "Hg1 mi
2:59 am63 °FPassing clouds.No wind90%30.22 "Hg8 mi
1:59 am64 °FFog.No wind90%30.23 "Hg6 mi
12:59 am64 °FPassing clouds.3 mph90%30.24 "Hg10 mi
11:59 pm
Wed, Oct 21
66 °FPassing clouds.No wind90%30.24 "Hg10 mi
10:59 pm67 °FPassing clouds.3 mph87%30.25 "Hg10 mi
9:59 pm66 °FPassing clouds.No wind90%30.25 "Hg10 mi
8:59 pm67 °FPassing clouds.No wind85%30.25 "Hg10 mi
7:59 pm70 °FPassing clouds.6 mph79%30.24 "Hg10 mi
6:59 pm71 °FPassing clouds.5 mph76%30.23 "Hg10 mi
5:59 pm75 °FScattered clouds.8 mph66%30.22 "Hg10 mi
4:59 pm78 °FPartly sunny.10 mph62%30.22 "Hg10 mi
3:59 pm79 °FPartly sunny.9 mph60%30.22 "Hg10 mi
2:59 pm80 °FScattered clouds.9 mph60%30.24 "Hg10 mi
Weather by CustomWeather, © 2020

See weather overview